Weather in Znamianka

Ukraine / Kirovohrad Region     48°42′46″N   32°41′25″E
temp.,
°C
wind,
m/s
gust,
m/s
humid.,
%
clouds,
%
prec.,
mm/h
press.,
hPa
HPBL,
m
21 june, mon
mon2100:00+18ene499274 0.0 1012200
03:00+17ene36940 0.0 1012119
06:00+18e24927 0.0 101291
09:00+24ese347443 0.0 1012464
12:00+28se45605 0.0 10121199
15:00+29se34542 0.0 10121663
18:00+29ese346049 0.0 10121537
21:00+23e498617 0.2 1013180
22 june, tue
tue2200:00+21e36805 0.0 101399
03:00+20ne367979 0.0 1012111
06:00+18ne4782100 0.1 1011153
09:00+23e6106648 0.1 1012440
12:00+27ese68605 0.1 1012947
15:00+29ese67580 0.1 10131304
18:00+28e57585 0.0 1013753
21:00+22e35705 0.0 101462
23 june, wed
wed2300:00+20ene35815 0.0 101462
03:00+20ne3482100 0.0 101358
06:00+20ne3887100 0.0 1013195
09:00+24ene5767100 0.0 1013432
12:00+25e5866100 0.0 1014648
15:00+27ene4664100 0.0 1014641
18:00+29e5763100 0.5 1014949
21:00+23ene478587 2.1 1015121
24 june, thu
thu2400:00+21e358751 0.6 101567
03:00+21ene128497 0.9 101511
06:00+21n358564 0.0 101597
09:00+25ne57705 0.0 1015355
12:00+29ne56575 0.0 1014916
15:00+30e555393 0.0 10141447
18:00+28ene686892 1.4 1014403
21:00+22ene4108382 2.6 1015183
25 june, fri
fri2500:00+21ese389076 0.1 1015158
03:00+20ene3385100 0.1 101529
06:00+20ene3486100 0.0 101589
09:00+26ene356694 0.0 1014392
12:00+29ne335144 0.0 1014700
15:00+31ne46505 0.0 10131693
18:00+30e46569 0.0 1013895
21:00+25e34750 0.0 101244